Showing default

LEMUR 2 DELOITTE-1, 63259

Orbit data source: Space-Track

LEMUR 2 DELOITTE-1, 63259 is a payload satellite owned by Spire (US) in SSO that was launched on Sat, 15 Mar 2025 UTC via an FALCON 9 launch vehicle from the Air Force Western Test Range (AFWTR). Payload-class satellites include a variety of spacecraft equipped with specific instruments for various scientific and technological missions. These include communications satellites like Starlink; space stations such as the ISS; scientific satellites like the Hubble; Earth observation satellites from companies like Planet Labs, Umbra, and HawkEye 360; GPS; miniature CubeSats for education and research; and military/defense satellites.

Loading next visibility...
Identifier
63259, 2025-052BB
Orbit
SSO
Last TLE update
16 hours ago
Origin
Manufacturer
Spire/Glasgow
Mission
Operational Commercial Com/MetRO
Bus & Motor
CUBESAT 6U, Unknown motor
Mass
10 kg wet, 10 kg dry
Launch date (UTC)
2025-03-15 (4 months ago)
Launch vehicle
FALCON 9
Launch site
Air Force Western Test Range (AFWTR)
Object type
Payload
Rocket body
Debris
Shape & HBR
Box, 0.3 m
Radar Cross Section
0.080 m², Small (<0.1 m²)

Expand to show TLE details & history

TLE from 16 hours ago
0 LEMUR 2 DELOITTE-1
1 63259U 25052BB  25188.65174673  .00003392  00000-0  32673-3 0  9993
2 63259  97.7300  81.8843 0002171 126.4322 233.7098 14.93598763 17191
Epoch: 2025-07-07T15:38Z
TLE epoch observation values (Epoch: 2025-07-07T15:38:30.917Z)
Latitude
-0.00005°
Longitude
-78.60253°
Altitude
590.666 km
Speed
7.564 km/s
True Right ascension
05h 27m 32s
True Declination
0° 00' 00"
Sunlit
Object was in daylight at epoch
Visualization orbit readout
Latitude
10.08092°
Longitude
-79.31719°
Altitude
589.624 km
Speed
7.566 km/s
Apparent Right ascension
06h 25m 26s
Apparent Declination
-14° 20' 41"
Sunlit
Object is in daylight
Visualization observer readout
Local Sidereal Time
19:51:32
Azimuth
42.478° NE
Elevation
-58.235°
Doppler factor
1
Orbital elements
Apogee altitude
585.252 km
Perigee altitude
582.229 km
Semi-major axis
6,961.878 km
Eccentricity
0.00022
Inclination
97.73°
RAAN
81.8843°
Arg. of periapsis
126.4322°
True anomaly
Unknown
Mean anomaly
233.7098°
Eccentric anomaly
Unknown
Mean motion
3.7364 °/min
Orbital period
96.35 mins
BSTAR
0.00032673
Loading maneuver chart data...
Loading SW <> Apogee altitude chart data...
Loading historical data...
Loading historical data...
Loading historical data...
Loading historical data...
Loading historical data...
Loading historical data...
Loading historical data...

LEMUR 2 DELOITTE-1 Visibility forecast

Observer location: undefined°, undefined°

Span
Click to sort rows by Start time (UTC) header in descending order
Start Az.
Max El. time (UTC)
Max El. Az.
Max El.
End time (UTC)
End Az.
5 mins2025-07-08 15:54:56.112Z105.835° ESE2025-07-08 15:56:56.112Z74.567° E17.199°2025-07-08 15:59:56.112Z25.833° NE
6 mins2025-07-08 17:29:56.112Z205.359° SW2025-07-08 17:32:56.112Z276.025° WNW29.104°2025-07-08 17:35:56.112Z326.615° NNW
5 mins2025-07-09 05:12:56.112Z47.249° ENE2025-07-09 05:14:56.112Z93.754° ESE28.692°2025-07-09 05:17:56.112Z156.204° SSE
4 mins2025-07-09 06:48:56.112Z317.169° NNW2025-07-09 06:49:56.112Z299.048° NW17.808°2025-07-09 06:52:56.112Z250.037° W
|